RH
52 57 59 65 69 69 67 66 75 76 79 84 81 82 82 84 84 80 78 75 73 68 63 63 62 60 65 63 55 56 58 61 61 56 56 58 60 59 59 61 57 53 53 54 54 52 53 54 55 57 58 57 56 53 49 47 46 42 39 39 38 38 37 36 34 34 34 34 36 40 43 41 38 40 41 41 41 42 41 42 44 45 46 44 45 47 49 50 52 51 51 52 54 57 59 56 51
58 64 65 68 68 70 71 65 72 75 78 84 81 82 84 84 84 81 76 74 71 64 63 64 62 59 61 58 53 52 51 55 53 49 52 55 56 56 58 60 57 53 51 52 51 51 53 52 52 55 57 56 55 51 46 44 42 38 36 38 37 37 36 37 37 37 38 39 42 42 43 43 43 44 45 46 46 46 45 47 49 50 52 49 47 48 51 53 55 57 57 58 58 58 59 57 54
61 64 65 66 66 67 70 66 69 71 76 84 83 81 82 84 80 77 76 73 66 60 63 64 61 59 60 58 55 50 46 48 46 46 52 54 53 52 55 53 55 55 51 53 51 49 50 50 51 54 54 53 52 49 44 41 38 35 37 38 38 39 39 41 42 43 44 44 44 44 45 46 48 50 51 51 51 50 51 53 52 55 57 53 52 52 53 55 57 60 62 64 62 60 60 60 57
62 62 62 62 65 64 66 71 72 74 80 82 82 81 81 84 77 74 77 71 61 61 65 63 62 64 62 56 52 47 43 43 44 50 54 53 51 49 52 50 53 56 53 53 51 48 47 49 52 54 53 51 50 45 41 39 36 37 39 40 42 44 44 45 46 47 47 47 46 46 48 50 52 53 55 55 55 55 55 56 55 58 59 55 56 55 56 57 57 61 65 67 64 63 62 61 60
64 63 60 61 69 69 70 75 73 77 83 77 76 81 80 79 76 75 75 66 61 65 65 60 62 63 61 56 51 47 42 40 41 50 55 51 49 47 50 54 55 56 55 53 50 47 45 47 50 51 50 49 46 42 40 39 40 42 43 44 47 49 48 48 48 48 49 50 50 50 53 54 54 55 57 57 57 58 59 59 59 60 58 57 57 55 57 60 61 63 65 66 65 64 64 63 61
64 61 60 63 69 71 74 75 73 79 80 73 76 80 76 75 75 75 71 64 66 67 63 63 63 59 58 54 49 45 42 41 41 48 54 49 48 46 49 59 61 57 56 55 51 46 44 46 48 47 45 44 43 42 42 43 45 46 45 48 50 51 50 50 50 49 49 52 54 54 56 57 57 58 60 60 59 60 60 60 59 58 56 56 55 54 57 62 66 65 64 65 66 67 67 66 64
61 59 61 66 69 71 76 75 76 80 79 75 76 79 75 74 73 73 69 63 68 67 65 68 64 59 55 48 45 44 43 45 44 44 48 48 48 46 50 61 61 58 60 57 51 46 44 45 46 45 43 42 43 44 45 46 49 50 51 53 53 52 51 53 53 51 51 53 56 56 57 58 59 60 61 60 59 58 58 58 57 55 54 54 55 57 59 62 66 65 63 65 67 68 69 68 65
60 63 67 70 73 74 77 76 79 78 78 77 74 77 76 74 73 71 69 65 68 66 66 67 63 62 57 47 43 43 45 47 46 42 42 46 48 47 50 58 60 58 58 55 51 46 44 46 45 44 43 44 45 47 48 49 53 54 56 58 58 55 53 55 55 53 52 54 56 57 58 58 58 59 60 58 56 55 56 56 55 53 54 56 57 58 59 61 64 63 63 65 66 68 68 67 66
60 66 70 73 73 73 76 77 80 77 76 78 76 77 75 74 74 72 71 68 69 67 66 66 63 63 56 47 44 45 47 48 45 41 41 43 47 48 47 55 62 60 57 54 51 47 44 45 43 42 44 45 47 48 49 50 52 56 57 59 59 58 56 56 55 54 54 56 57 57 58 57 58 58 57 55 54 54 54 53 53 53 55 57 58 58 59 60 61 62 64 65 65 66 66 65 65
62 68 71 72 73 74 78 76 78 78 74 75 76 79 77 72 72 73 73 70 70 68 64 64 63 61 54 47 46 48 48 47 44 41 42 43 46 48 46 51 58 58 58 56 52 48 43 42 41 42 45 46 48 48 48 48 51 56 56 56 57 58 58 58 56 55 56 58 58 58 57 57 57 57 56 53 52 55 54 53 53 54 55 56 56 57 59 59 58 60 63 63 63 63 64 64 63
67 71 70 74 77 74 74 74 78 76 72 76 77 80 80 73 72 74 74 73 70 68 66 64 64 59 52 48 48 50 47 45 44 43 43 44 47 48 47 48 52 53 53 56 56 48 41 41 41 42 46 47 48 47 46 48 54 57 55 55 55 57 59 58 56 56 58 60 59 58 58 57 56 55 55 51 50 53 53 52 52 53 54 54 55 56 56 55 56 59 61 61 60 60 60 61 59
70 69 68 77 80 74 72 75 80 75 73 78 79 79 80 76 74 74 75 74 69 68 68 66 65 56 49 48 49 50 46 44 45 45 43 44 47 49 49 49 52 52 50 52 53 45 39 40 40 43 46 46 46 45 46 51 56 56 55 55 55 57 59 58 55 55 58 58 58 59 59 57 56 54 52 49 49 53 53 52 52 51 52 53 54 54 53 53 55 58 59 58 56 55 55 57 56
71 69 69 74 74 74 75 77 79 78 81 84 81 79 79 77 75 75 75 72 69 69 68 68 65 57 50 48 49 49 45 44 45 44 43 43 46 48 49 50 53 53 50 48 46 42 39 39 40 43 44 43 43 44 49 54 56 56 55 55 55 57 59 58 54 55 57 57 57 59 59 57 56 53 51 47 49 52 52 51 51 51 52 52 52 52 52 54 56 57 56 55 53 53 53 54 54
70 71 73 72 70 73 75 77 80 82 88 87 84 81 79 79 76 77 77 71 67 68 69 69 65 57 50 47 47 47 43 44 45 44 44 44 45 47 46 49 52 53 51 48 46 44 43 45 45 44 41 40 42 46 52 55 55 55 55 54 54 56 57 57 54 54 56 57 58 60 59 56 55 53 51 48 49 52 50 51 51 50 51 51 50 49 52 54 55 56 55 54 54 54 53 53 53
67 70 72 73 71 72 74 78 81 83 87 86 85 82 78 78 78 78 76 70 67 68 70 66 63 59 49 45 46 43 40 41 43 44 45 45 46 46 44 45 50 51 52 50 47 47 51 54 50 46 43 42 48 52 53 55 55 54 55 56 55 55 56 56 53 53 55 57 58 58 57 55 55 53 50 48 48 51 51 51 51 50 52 52 49 48 49 51 52 54 54 54 54 54 53 52 52
65 66 70 74 73 72 75 78 78 80 85 85 83 81 79 78 78 77 72 70 70 68 68 65 63 63 53 46 44 40 38 38 41 44 44 45 45 45 44 44 49 50 50 49 47 50 59 61 55 52 49 50 56 56 53 54 55 57 56 56 56 56 56 54 51 51 54 56 55 56 57 55 54 52 50 48 48 51 51 51 53 53 53 52 49 45 46 50 53 53 53 53 53 53 53 53 52
64 67 70 73 74 74 78 80 79 81 82 83 84 81 81 81 80 77 72 73 72 66 67 65 60 62 58 49 44 40 38 37 40 42 42 43 44 44 44 45 48 49 49 49 49 52 57 61 60 56 52 57 61 57 54 52 54 58 55 53 55 55 55 53 51 51 53 56 57 57 57 56 55 53 51 49 49 51 52 54 56 54 52 49 46 44 45 49 52 51 49 49 50 50 51 52 52
65 69 71 71 72 72 76 79 80 80 80 82 83 81 78 79 78 75 74 73 69 67 68 65 59 63 60 49 44 41 38 37 39 41 42 44 44 43 42 44 46 47 48 50 51 51 53 56 57 55 53 56 60 60 58 54 53 56 55 55 56 56 55 54 52 51 53 58 61 59 58 59 56 55 53 51 51 49 50 55 56 55 50 46 45 46 47 47 49 48 45 44 44 45 47 48 49
64 66 70 72 71 67 70 77 79 79 80 80 80 80 77 76 74 72 74 71 67 67 67 63 61 62 56 46 43 40 37 36 38 41 42 43 43 41 40 43 45 46 47 49 51 52 51 52 51 52 51 51 58 64 61 56 54 55 58 58 58 59 58 58 55 52 52 56 58 57 56 57 58 58 54 51 50 46 47 53 53 52 48 44 43 45 45 43 43 44 42 40 39 41 44 45 45
65 69 73 73 69 65 66 74 79 77 75 78 78 78 77 76 74 73 74 71 68 65 61 61 59 55 50 44 41 39 38 37 39 41 41 42 41 40 40 42 45 47 48 47 49 51 51 50 50 50 47 46 57 66 62 57 59 62 63 64 62 58 58 59 56 52 51 51 56 60 59 58 60 60 57 56 54 50 52 54 52 52 50 46 44 46 46 42 40 40 39 39 39 40 43 43 44
63 69 71 70 67 64 64 69 78 78 74 77 78 78 78 76 77 78 75 72 70 65 62 60 55 51 47 42 41 40 38 37 39 40 42 43 41 39 41 44 46 48 49 48 48 49 49 50 50 48 45 46 54 65 64 58 62 65 66 71 67 60 61 59 56 56 54 53 57 63 66 64 62 60 59 60 59 57 58 57 57 58 56 53 51 51 51 48 46 43 41 42 42 40 40 40 41
61 66 69 70 64 61 62 64 73 79 77 78 80 80 79 77 77 79 76 72 70 68 67 63 55 52 47 41 40 40 36 35 38 41 42 43 41 40 40 46 48 48 50 49 47 47 48 49 49 46 45 46 50 59 62 58 64 64 60 66 64 60 62 59 58 62 61 59 57 58 64 61 61 65 62 59 60 60 61 60 60 60 60 59 58 57 56 55 51 47 45 47 45 43 42 41 41
60 66 69 68 59 58 60 60 66 75 79 80 80 82 82 81 79 79 76 71 69 69 67 61 57 52 46 41 39 37 34 35 37 38 39 38 39 39 37 42 45 46 48 47 46 47 48 48 47 46 45 46 48 54 56 54 62 61 56 59 58 56 58 57 56 56 56 57 54 54 57 53 55 63 60 62 66 65 67 66 64 65 64 61 59 59 57 55 54 49 46 48 47 45 46 46 46
60 67 69 63 54 56 58 57 62 68 76 78 78 83 84 83 81 80 76 72 70 69 63 58 55 51 46 42 38 36 34 35 34 32 34 35 37 36 33 37 41 44 46 46 47 47 49 48 47 47 46 46 48 52 53 53 56 56 54 56 56 55 55 55 52 50 52 54 53 52 51 48 49 55 54 57 62 61 67 68 68 72 73 70 67 63 57 53 55 50 44 48 48 46 47 47 47
59 66 66 59 53 55 55 56 57 62 73 77 76 81 84 83 80 79 77 74 72 68 63 56 52 49 46 42 39 36 34 33 30 28 31 32 33 33 31 34 38 42 44 46 47 45 47 48 46 47 46 46 48 51 53 53 54 53 54 54 53 55 55 52 50 50 52 51 51 50 47 46 47 50 49 50 53 55 63 65 66 70 73 74 69 66 65 61 59 53 46 48 49 47 46 46 46
58 61 61 56 52 52 51 52 54 59 70 75 75 77 82 82 79 80 79 76 74 70 63 55 50 48 44 42 40 37 35 33 31 29 29 31 33 32 30 31 33 38 42 43 45 43 44 46 46 48 47 48 50 51 52 52 53 53 53 52 49 53 52 50 50 50 50 48 47 46 46 45 44 45 43 46 49 50 58 59 60 67 65 63 60 59 64 61 58 57 50 47 49 47 45 47 46
54 55 56 54 50 50 49 52 54 58 66 71 74 76 80 81 78 80 81 78 75 69 62 55 52 49 45 44 42 38 36 33 33 31 28 30 31 30 28 27 27 33 40 41 42 41 43 45 47 49 48 48 51 51 51 52 52 52 50 48 48 50 48 48 49 48 48 46 41 40 43 44 43 42 39 43 46 47 55 54 55 63 59 56 57 55 56 53 53 55 49 46 48 46 45 48 47
51 52 53 51 48 47 49 54 55 58 66 70 74 78 79 78 77 79 80 79 76 69 62 58 55 52 50 49 43 39 37 35 34 29 26 27 27 27 26 25 25 29 36 38 40 40 40 45 48 49 47 47 52 51 50 51 51 48 46 47 47 47 46 47 47 46 46 42 37 37 38 39 38 37 37 41 44 47 53 52 51 55 54 55 56 52 52 50 49 47 44 46 48 46 46 48 48
49 51 51 50 46 45 49 55 55 59 68 69 71 79 79 76 76 78 78 79 77 70 62 60 59 56 53 52 45 40 39 37 36 30 27 26 24 24 24 24 24 26 30 35 39 39 40 46 48 48 46 46 52 52 49 51 49 46 45 46 45 44 46 47 47 45 43 39 36 36 34 32 32 32 35 39 43 45 49 52 52 51 52 55 51 50 53 52 52 49 45 46 47 46 46 47 48
46 48 47 48 47 45 49 53 53 59 70 69 67 75 79 75 75 78 77 79 80 73 66 66 67 60 54 53 48 43 40 39 37 33 30 28 24 23 23 23 23 25 28 33 39 38 40 46 46 46 47 46 52 53 50 50 47 44 44 44 42 44 47 47 47 44 40 38 36 34 33 32 31 32 34 39 43 43 45 51 53 49 48 50 47 49 52 52 53 53 49 48 47 45 45 47 47
39 43 43 46 47 46 52 52 49 59 68 66 65 73 78 75 76 77 76 81 82 75 70 71 71 66 56 51 50 47 43 40 37 35 34 32 28 24 23 23 23 25 28 32 37 39 39 42 42 44 47 47 51 51 50 47 44 43 43 43 43 45 46 46 45 43 41 41 37 35 36 34 34 35 35 39 42 43 44 46 48 46 47 50 48 48 52 51 50 50 50 49 47 46 47 46 46
30 37 41 44 44 46 52 49 48 61 67 65 68 74 76 74 75 77 78 83 83 76 73 71 73 71 61 52 51 50 46 42 38 36 37 34 30 27 24 24 24 24 27 32 37 39 40 40 41 44 47 48 50 49 47 44 42 43 44 44 45 45 46 45 43 43 43 44 41 39 38 37 38 37 36 38 43 47 46 46 45 44 47 49 45 45 49 49 48 49 49 50 48 47 47 46 45
25 30 37 42 42 44 48 47 50 60 65 66 69 71 75 74 75 80 82 85 83 78 76 73 73 71 64 56 53 52 49 45 39 35 36 34 31 30 27 24 24 24 26 31 36 39 40 39 41 44 47 48 48 46 44 42 43 45 45 46 46 47 46 46 46 45 46 47 46 42 39 40 40 39 39 40 45 47 46 47 45 43 46 47 45 47 48 47 49 49 48 52 51 46 47 48 45
25 26 34 39 40 42 48 52 52 56 62 67 69 68 72 74 76 80 82 84 85 81 78 75 73 71 68 61 56 54 51 46 41 35 35 35 33 32 29 27 26 25 25 29 35 38 40 38 39 43 46 47 45 42 41 42 44 44 46 47 47 48 48 49 49 47 47 49 50 44 39 41 40 40 41 41 46 48 46 47 45 43 44 44 44 48 49 47 49 49 46 48 49 48 48 46 44
23 25 30 36 38 39 47 53 52 52 58 67 72 68 68 72 73 76 80 81 82 83 82 79 74 71 69 64 60 58 53 48 43 37 35 35 35 33 31 30 28 26 25 28 35 38 40 39 40 43 44 46 44 39 40 43 43 44 47 49 48 49 50 50 49 48 49 51 51 44 40 41 40 41 41 41 47 49 47 47 43 43 44 44 46 47 47 44 43 44 45 45 47 48 48 46 44
26 27 29 34 40 40 43 52 53 51 54 66 77 72 67 71 69 71 77 78 79 82 81 78 74 70 69 67 65 62 56 52 46 41 37 34 34 33 32 32 29 27 25 28 35 39 41 40 40 43 42 46 45 38 40 43 44 45 48 50 50 50 50 49 48 48 50 53 51 44 42 42 40 41 42 42 46 48 50 47 42 43 45 45 48 49 47 43 38 39 40 42 46 46 45 45 45
31 32 31 34 44 44 42 50 55 52 52 63 76 74 70 71 68 70 73 76 82 83 78 76 74 71 70 69 68 65 58 55 50 44 41 36 33 33 33 33 30 27 27 29 34 39 42 40 40 42 42 46 46 42 42 45 46 47 49 51 50 51 51 49 49 48 51 55 50 44 44 43 41 42 43 43 44 46 48 45 40 41 45 45 45 48 45 39 37 38 38 39 43 45 45 45 45
29 34 36 35 46 50 43 45 52 52 52 59 68 71 69 67 67 67 68 75 82 82 78 76 73 68 68 69 70 68 60 58 55 47 44 40 35 34 34 35 32 29 29 31 35 39 42 42 40 40 42 45 46 46 47 48 48 46 48 51 51 52 50 49 50 49 53 55 48 44 46 45 44 43 43 44 44 45 46 43 38 39 44 43 41 43 40 37 38 38 39 41 43 46 48 47 45
27 33 36 37 46 49 42 39 45 50 53 58 61 63 63 61 64 63 62 70 76 79 78 75 71 66 66 70 70 69 64 60 58 51 46 43 40 37 34 35 35 31 29 31 35 38 41 44 41 38 40 44 46 47 48 51 50 47 49 51 53 53 50 49 50 50 55 56 49 46 46 45 45 45 43 43 43 45 45 45 43 41 40 40 40 42 41 39 39 39 43 46 45 46 47 47 46
27 31 31 34 44 47 42 37 39 46 51 57 57 55 56 58 63 64 60 62 67 72 76 75 73 68 68 71 68 67 67 63 60 55 49 47 44 40 36 35 33 31 30 31 35 37 38 44 43 38 37 41 45 44 45 52 52 48 50 50 53 55 50 50 49 51 59 60 52 47 46 44 46 47 45 45 46 45 44 47 49 44 39 38 39 40 42 42 41 43 46 44 46 49 46 45 46
27 30 30 34 41 43 45 42 40 43 45 52 54 51 51 53 58 64 61 61 65 66 70 74 74 70 70 71 67 66 67 65 63 59 53 49 46 44 40 36 32 31 31 31 34 35 35 40 41 38 35 36 42 41 41 50 50 47 50 50 53 54 51 50 50 50 55 56 52 50 47 43 46 51 47 48 53 46 43 47 47 44 41 39 41 43 45 47 47 48 45 42 47 52 48 45 46
25 26 31 38 41 41 45 44 40 41 42 45 48 48 50 49 53 61 61 62 66 65 63 66 70 71 71 69 66 67 68 68 67 63 58 52 47 46 45 39 33 31 31 30 32 33 34 38 39 37 33 33 38 35 34 43 45 43 47 49 51 52 50 50 50 51 51 51 52 53 53 46 46 53 49 49 55 47 42 44 43 46 46 41 44 48 47 46 47 49 46 46 49 50 50 48 47
21 20 26 36 42 43 46 44 39 39 40 40 42 46 50 51 53 59 61 59 64 69 65 61 64 67 68 67 65 66 66 67 68 67 65 60 53 47 47 44 37 33 33 31 31 33 36 38 38 36 33 32 34 31 29 36 39 39 43 47 50 49 49 48 49 52 51 50 52 52 54 51 47 53 51 49 52 47 43 44 43 48 51 46 45 46 46 47 49 50 49 50 50 47 48 49 48
18 19 23 30 39 45 46 43 39 39 40 39 40 43 47 50 54 58 60 58 62 71 69 63 64 66 67 67 67 67 67 67 69 69 68 67 62 54 51 49 43 38 36 34 32 32 36 38 36 34 32 31 32 29 27 30 35 37 38 44 48 46 47 48 47 51 50 49 50 50 52 52 48 51 55 50 47 47 45 45 45 47 52 51 47 47 49 50 51 49 47 47 46 43 43 47 50
22 25 26 29 35 42 44 41 38 39 42 41 39 40 41 49 57 58 60 62 66 75 72 63 62 65 66 67 66 67 68 68 69 70 69 67 65 61 60 56 48 42 39 37 34 33 36 38 35 33 32 31 30 28 26 26 30 33 35 40 45 45 47 48 46 48 49 48 49 48 49 52 48 48 53 49 45 47 46 45 46 45 49 51 48 49 51 50 49 45 42 42 41 41 41 43 48
26 28 27 30 34 36 40 40 38 41 45 44 41 39 40 48 55 53 58 67 71 73 73 67 60 59 59 63 65 65 67 68 68 70 68 66 64 63 64 60 51 46 43 40 38 36 36 37 34 32 32 31 29 27 26 25 25 28 32 37 42 44 45 47 47 46 46 45 46 46 45 49 50 48 50 48 44 45 46 46 47 46 49 52 49 51 53 50 47 43 41 41 41 43 42 40 44
26 30 28 30 32 33 35 37 39 43 46 44 40 39 39 48 56 56 59 66 65 62 68 72 69 65 60 58 60 61 64 65 64 67 68 65 65 65 65 63 56 51 49 44 41 39 38 38 33 29 29 31 29 27 26 25 24 24 28 33 38 41 43 46 47 45 43 39 40 44 41 43 50 52 51 49 45 46 45 45 50 52 52 55 52 52 54 51 49 48 47 43 39 41 42 41 44
26 32 32 28 29 32 33 34 37 43 46 42 39 38 38 44 55 62 64 62 58 57 61 66 69 71 67 59 57 58 61 61 60 65 68 67 66 66 65 65 62 59 54 48 43 42 42 41 35 28 27 30 28 27 27 26 24 23 25 29 33 37 41 43 45 44 41 37 38 42 42 42 48 53 54 51 48 49 45 44 52 56 52 54 53 51 53 52 52 53 50 46 42 39 40 41 44
26 31 32 28 26 28 31 33 34 38 42 38 36 36 35 40 51 60 64 61 56 56 55 54 57 62 64 61 56 55 56 57 58 63 67 67 66 65 67 66 64 61 56 51 46 44 44 43 38 30 27 28 28 28 28 27 25 23 23 26 30 33 37 40 42 43 41 37 38 41 43 43 46 51 53 52 49 49 46 44 49 52 49 50 51 50 53 52 52 55 49 48 49 43 42 43 43
29 29 29 26 24 24 28 31 33 35 36 34 33 33 34 45 56 60 63 61 56 54 48 43 44 48 54 57 55 58 61 60 61 64 65 68 67 66 67 68 66 61 58 55 50 47 46 45 42 34 29 27 27 27 29 28 25 23 23 25 27 30 32 35 40 42 41 39 39 41 42 43 44 48 52 52 50 49 49 44 42 44 44 46 46 45 49 47 49 55 52 51 55 48 44 45 43
30 28 26 23 23 26 25 25 30 33 32 30 30 30 34 45 55 57 60 59 55 51 45 39 38 39 47 54 54 60 70 71 70 68 66 68 70 69 67 67 67 62 59 57 54 50 48 48 45 38 32 29 27 27 27 27 26 24 23 23 26 28 30 32 37 40 41 40 40 41 41 43 44 47 50 51 49 48 49 46 39 38 39 42 44 41 44 48 47 49 49 52 58 51 43 45 46
29 26 24 22 24 29 26 21 27 31 28 27 29 34 39 44 49 51 55 57 53 49 45 40 39 38 41 49 53 58 67 73 75 73 69 68 69 69 67 66 67 64 59 59 58 54 50 49 48 41 36 33 29 27 27 26 26 25 23 22 23 26 27 30 35 37 39 39 40 41 41 43 46 46 46 47 48 47 48 46 41 38 35 36 41 39 42 52 49 45 48 49 54 54 46 43 47
32 27 23 21 24 30 29 24 26 29 28 26 28 37 45 48 52 52 51 53 53 50 45 40 40 40 39 42 49 57 61 64 68 70 70 70 68 68 69 69 69 66 62 60 59 57 52 50 50 45 40 38 33 29 27 27 27 26 25 23 22 23 24 29 34 35 37 38 38 39 40 41 42 43 45 45 45 44 44 44 44 43 37 33 38 38 40 47 44 44 51 47 46 57 54 44 46
33 29 24 23 27 32 32 29 28 28 27 25 25 32 39 45 54 56 51 51 53 50 44 41 41 42 41 41 46 54 57 60 65 66 68 70 70 70 71 72 71 67 65 63 59 59 55 51 52 49 43 41 38 32 29 28 28 27 26 24 22 22 23 27 33 35 36 37 36 36 38 39 39 39 43 45 45 42 39 40 42 42 40 35 36 37 37 38 37 40 49 47 44 55 57 49 48
30 32 28 28 32 33 33 34 32 28 26 25 26 31 34 36 46 56 54 51 53 51 44 42 43 43 44 44 45 49 54 60 66 67 66 69 70 70 70 71 73 70 68 67 62 60 57 52 53 52 45 42 39 37 35 31 28 28 29 27 23 22 22 25 30 33 35 36 36 36 36 39 40 39 41 42 44 43 39 38 37 38 40 37 35 35 34 34 34 35 42 47 51 53 53 53 52
26 31 29 31 34 32 31 33 32 28 27 27 25 31 41 42 45 55 57 53 52 49 44 41 43 44 45 47 46 46 49 55 62 66 67 68 70 72 72 72 76 75 72 72 66 62 61 57 53 51 48 45 42 41 39 33 30 30 30 28 25 24 23 25 28 30 32 34 34 35 37 38 39 38 39 40 40 41 41 40 38 38 40 38 36 37 36 34 32 33 37 44 53 55 51 50 49
24 27 30 33 36 34 31 31 30 28 30 28 24 35 54 54 47 48 52 53 49 43 40 40 41 43 45 48 49 47 47 50 55 60 66 68 70 74 73 73 78 80 77 75 71 66 63 60 56 55 53 49 45 44 43 36 32 32 31 28 26 25 24 25 27 28 30 32 32 33 36 38 38 37 38 39 38 37 38 39 40 39 39 39 38 38 38 36 33 31 33 37 45 51 48 45 44
23 25 28 32 34 34 34 32 29 27 28 26 25 43 62 58 48 46 45 47 47 44 41 39 40 42 45 48 50 48 47 48 50 54 60 67 72 74 71 71 80 84 80 78 76 69 64 61 60 59 59 58 55 50 46 41 36 33 31 30 27 27 25 25 27 28 28 29 31 31 33 34 36 37 37 37 38 38 37 36 37 38 37 38 40 38 36 37 36 32 31 33 38 41 39 38 39